Mount Carmel, IL

4:46 AM CST on December 09, 2019 (GMT -0600)
Mount Carmel Municipal

Weather History for KAJG - November, 2019

Change the Weather History Date:

Tuesday, November 19, 2019

  Actual Average (KLWV) Record (KLWV)
Temperature  
Mean Temperature 42 °F 45 °F  
Max Temperature 48 °F 54 °F 69 °F (2007)
Min Temperature 37 °F 36 °F 14 °F (2014)
Degree Days  
Heating Degree Days 22 20  
Month to date heating degree days 310  
Since 1 July heating degree days 607  
Cooling Degree Days 0 0  
Month to date cooling degree days 0  
Year to date cooling degree days 1386  
Moisture  
Dew Point 38 °F    
Average Humidity 85    
Maximum Humidity 94    
Minimum Humidity 73    
Precipitation  
Precipitation 0.00 in 0.14 in 1.70 in (1985)
Month to date precipitation 2.42  
Year to date precipitation 38.94  
Sea Level Pressure  
Sea Level Pressure 29.85 in    
Wind  
Wind Speed 9 mph (WNW)    
Max Wind Speed 20 mph    
Max Gust Speed 23 mph    
Visibility 8 miles    
Events Rain    
T = Trace of Precipitation, MM = Missing Value Source: NWS Daily Summary

Daily Weather History Graph

Daily Weather History Graph

Search for Another Location

Airport or City:

Astronomy

Nov. 19, 2019 Rise Set
Actual Time 6:37 AM CST 4:35 PM CST
Civil Twilight 6:08 AM CST 5:03 PM CST
Nautical Twilight 5:36 AM CST 5:36 PM CST
Astronomical Twilight 5:04 AM CST 6:07 PM CST
Moon 11:29 PM CST (11/19) 12:47 PM CST (11/19)
Length of Visible Light 10h 55m
Length of Day
9h 58m
Waning Gibbous, 51% of the Moon is Illuminated
Nov 19
Waning Gibbous
Nov 19
Last Quarter
Nov 26
New
Dec 4
First Quarter
Dec 11
Full

Hourly Weather History & Observations

Time (CST) Temp. Windchill Dew Point Humidity Pressure Visibility Wind Dir Wind Speed Gust Speed Precip Events Conditions
12:35 AM 37.8 °F - 36.0 °F 93% 29.77 in 5.0 mi North - - N/A   Overcast
12:55 AM 37.8 °F - 35.8 °F 93% 29.77 in 5.0 mi North - - N/A   Overcast
1:15 AM 37.8 °F - 35.8 °F 93% 29.77 in 5.0 mi North - - N/A   Overcast
1:35 AM 37.8 °F - 35.8 °F 93% 29.76 in 4.0 mi North - - N/A   Overcast
1:55 AM 37.4 °F - 35.8 °F 94% 29.76 in 4.0 mi North - - N/A   Overcast
2:15 AM 38.1 °F - 36.0 °F 92% 29.76 in 5.0 mi North - - N/A   Overcast
2:35 AM 37.8 °F 33.3 °F 36.0 °F 93% 29.76 in 4.0 mi East 5.8 mph - N/A   Overcast
2:55 AM 38.3 °F 33.9 °F 36.5 °F 93% 29.75 in 5.0 mi East 5.8 mph - N/A   Overcast
3:15 AM 38.7 °F - 36.5 °F 92% 29.74 in 5.0 mi North - - N/A   Overcast
3:35 AM 38.5 °F 35.0 °F 36.5 °F 93% 29.74 in 5.0 mi ESE 4.6 mph - N/A   Overcast
3:55 AM 38.3 °F - 36.5 °F 93% 29.74 in 5.0 mi North - - N/A   Overcast
4:15 AM 38.5 °F - 36.5 °F 93% 29.74 in 5.0 mi North - - N/A   Overcast
4:35 AM 38.3 °F - 36.1 °F 92% 29.74 in 5.0 mi North - - N/A   Overcast
4:55 AM 37.9 °F - 35.8 °F 92% 29.75 in 5.0 mi North - - N/A   Overcast
5:15 AM 38.3 °F 33.9 °F 36.1 °F 92% 29.74 in 5.0 mi ESE 5.8 mph - N/A   Overcast
5:35 AM 37.9 °F - 36.0 °F 93% 29.74 in 5.0 mi North - - N/A   Overcast
5:55 AM 38.3 °F - 36.5 °F 93% 29.75 in 5.0 mi North - - N/A   Overcast
6:15 AM 38.7 °F - 36.5 °F 92% 29.76 in 7.0 mi North - - N/A   Overcast
6:35 AM 38.5 °F - 36.7 °F 93% 29.76 in 5.0 mi North - - N/A   Overcast
6:55 AM 39.0 °F 34.8 °F 37.2 °F 93% 29.75 in 5.0 mi ESE 5.8 mph - N/A   Overcast
7:15 AM 39.6 °F - 37.6 °F 93% 29.75 in 5.0 mi North - - N/A   Overcast
7:35 AM 40.3 °F - 38.1 °F 92% 29.76 in 7.0 mi North - - N/A   Overcast
7:55 AM 41.0 °F - 38.5 °F 91% 29.76 in 7.0 mi North - - N/A   Overcast
8:15 AM 42.8 °F - 39.6 °F 88% 29.77 in 7.0 mi North - - N/A   Overcast
8:35 AM 44.6 °F - 40.3 °F 85% 29.77 in 10.0 mi North - - N/A   Overcast
8:55 AM 45.5 °F - 41.0 °F 84% 29.77 in 10.0 mi North - - N/A   Overcast
9:15 AM 45.9 °F - 41.0 °F 83% 29.78 in 10.0 mi North - - N/A   Overcast
9:35 AM 45.9 °F 42.9 °F 41.4 °F 84% 29.78 in 10.0 mi SW 5.8 mph - N/A   Overcast
9:55 AM 46.6 °F - 41.2 °F 81% 29.78 in 10.0 mi SW 6.9 mph - N/A   Overcast
10:15 AM 46.6 °F - 41.5 °F 83% 29.78 in 10.0 mi SW 5.8 mph - N/A   Overcast
10:35 AM 46.6 °F - 41.9 °F 84% 29.79 in 10.0 mi WSW 8.1 mph - N/A   Overcast
10:55 AM 47.1 °F - 41.7 °F 81% 29.79 in 10.0 mi North - - N/A   Overcast
11:15 AM 47.7 °F - 42.3 °F 82% 29.79 in 10.0 mi North - - N/A   Overcast
11:35 AM 48.0 °F - 42.4 °F 81% 29.78 in 10.0 mi West 9.2 mph - N/A Rain Light Rain
11:55 AM 47.3 °F - 43.2 °F 86% 29.79 in 10.0 mi West 8.1 mph - N/A   Overcast
12:15 PM 47.1 °F - 42.8 °F 85% 29.79 in 10.0 mi West 10.4 mph - N/A   Overcast
12:35 PM 46.9 °F - 43.0 °F 86% 29.79 in 10.0 mi West 8.1 mph - N/A   Overcast
12:55 PM 47.7 °F - 43.2 °F 84% 29.80 in 10.0 mi WNW 10.4 mph - N/A   Overcast
1:15 PM 47.5 °F - 43.0 °F 84% 29.81 in 10.0 mi WNW 15.0 mph - N/A   Overcast
1:55 PM 46.9 °F - 42.8 °F 86% 29.82 in 10.0 mi WNW 11.5 mph - N/A   Overcast
2:15 PM 47.3 °F - 42.1 °F 82% 29.83 in 10.0 mi WNW 19.6 mph 23.0 mph N/A   Overcast
2:35 PM 46.8 °F - 42.3 °F 84% 29.84 in 10.0 mi WNW 15.0 mph 19.6 mph N/A   Overcast
2:55 PM 47.3 °F - 41.9 °F 82% 29.85 in 10.0 mi WNW 13.8 mph 23.0 mph N/A   Overcast
3:15 PM 47.3 °F - 41.5 °F 80% 29.87 in 10.0 mi WNW 15.0 mph 21.9 mph N/A   Overcast
3:35 PM 47.1 °F - 40.3 °F 77% 29.89 in 10.0 mi WNW 13.8 mph - N/A   Overcast
3:55 PM 46.9 °F - 39.6 °F 76% 29.90 in 10.0 mi WNW 16.1 mph - N/A   Overcast
4:15 PM 46.8 °F - 38.8 °F 74% 29.91 in 10.0 mi WNW 12.7 mph - N/A   Overcast
4:55 PM 46.4 °F 40.7 °F 38.3 °F 73% 29.93 in 10.0 mi NW 12.7 mph - N/A   Overcast
5:15 PM 45.9 °F 40.0 °F 38.1 °F 74% 29.93 in 10.0 mi NW 12.7 mph - N/A   Overcast
5:35 PM 45.9 °F 38.8 °F 37.6 °F 73% 29.95 in 10.0 mi NW 17.3 mph 23.0 mph N/A   Overcast
5:55 PM 45.7 °F 40.6 °F 37.9 °F 74% 29.95 in 10.0 mi NW 10.4 mph - N/A   Overcast
6:15 PM 45.5 °F 39.6 °F 37.8 °F 74% 29.96 in 10.0 mi WNW 12.7 mph 17.3 mph N/A   Overcast
6:35 PM 45.1 °F 40.8 °F 37.2 °F 74% 29.97 in 10.0 mi WNW 8.1 mph - N/A   Overcast
6:55 PM 44.6 °F 39.2 °F 36.9 °F 74% 29.97 in 10.0 mi NW 10.4 mph - N/A   Overcast
7:35 PM 43.0 °F 37.7 °F 36.9 °F 79% 29.99 in 10.0 mi WNW 9.2 mph - N/A   Overcast
7:55 PM 42.8 °F 38.6 °F 37.6 °F 82% 29.99 in 10.0 mi NW 6.9 mph - N/A   Overcast
8:15 PM 43.0 °F 39.5 °F 37.8 °F 82% 30.00 in 10.0 mi NW 5.8 mph - N/A   Overcast
8:35 PM 42.8 °F 39.3 °F 37.8 °F 82% 30.01 in 10.0 mi WNW 5.8 mph - N/A   Overcast
8:55 PM 42.8 °F 38.0 °F 37.8 °F 82% 30.01 in 10.0 mi NW 8.1 mph - N/A   Overcast
9:15 PM 43.3 °F 36.1 °F 36.7 °F 77% 30.01 in 10.0 mi NNW 15.0 mph - N/A   Overcast
9:35 PM 43.2 °F 38.4 °F 36.9 °F 78% 30.01 in 10.0 mi NNW 8.1 mph - N/A   Overcast
9:55 PM 43.0 °F 39.5 °F 37.0 °F 80% 30.02 in 10.0 mi NW 5.8 mph - N/A   Overcast
10:15 PM 43.0 °F 38.2 °F 37.0 °F 80% 30.03 in 10.0 mi NW 8.1 mph - N/A   Overcast
10:35 PM 42.8 °F 38.0 °F 37.0 °F 80% 30.03 in 10.0 mi North 8.1 mph - N/A   Overcast
10:55 PM 41.9 °F 38.2 °F 36.0 °F 79% 30.03 in 10.0 mi North 5.8 mph - N/A   Overcast
11:15 PM 39.6 °F - 34.9 °F 83% 30.03 in 10.0 mi North - - N/A   Overcast
11:35 PM 39.6 °F - 34.9 °F 83% 30.04 in 10.0 mi North - - N/A   Mostly Cloudy
11:55 PM 39.4 °F - 35.1 °F 84% 30.04 in 10.0 mi North - - N/A   Mostly Cloudy